Location: Jackson Park
(37.2862°N, 79.9123°W)
Time: 20:42:37
(UTC+00:00)

Vanguard 2 Rocket - Pass Details

Date: 13 May 2026
Orbit: 553 x 3286 km, 32.9° (Epoch: 6 June)

Event Time Altitude Azimuth Distance (km) Brightness Sun altitude
Rises 13:09:21 0° 179° (S) 4,593 10.5 33.4°
Reaches altitude 10° 13:14:10 10° 156° (SSE) 4,151 10.7 34.3°
Maximum altitude 13:19:47 15° 127° (SE) 4,336 11.4 35.4°
Drops below altitude 10° 13:26:40 10° 99° (E) 5,322 12.1 36.8°
Sets 13:34:33 0° 81° (E) 6,853 12.2 38.4°
